FENGYUN 1C DEB, 31146

Orbit data source: Space-Track

FENGYUN 1C DEB, 31146 is space debris in SSO originally from a launch on Mon, 10 May 1999 UTC launched from the Taiyaun Space Center, China (TSC). Fengyun 1C debris stems from the Chinese weather satellite Fengyun-1C, which was intentionally destroyed by a Chinese anti-satellite missile in 2007. This event dramatically increased the amount of space debris, with thousands of trackable fragments posing hazards to satellites and human spaceflight. The Fengyun 1C debris cloud has become a focal point in discussions about space sustainability and the need for international regulations to prevent the creation of new debris.

Loading next visibility...
Identifier
31146, 1999-025BGY
Orbit
SSO
Country
Flag of CNCN / PRC
Related business
Manufacturer
Unknown
Mission
Spacecraft
Bus & Motor
Unknown
Mass
Unknown
Launch date (UTC)
1999-05-10 (27 years ago)
Launch vehicle
Unknown
Launch site
Taiyaun Space Center, China (TSC)
Object type
Payload
Rocket body
Debris
Shape & HBR
Unknown shape, 0.1 m
Radar Cross Section
Small (<0.1 m²)

Expand to show TLE details & history
Last TLE update: 2 days ago

TLE from 2 days ago
0 FENGYUN 1C DEB
1 31146U 99025BGY 26206.28566487  .00000692  00000-0  23603-3 0  9996
2 31146  99.0566 150.3733 0209691 237.7842 120.2857 14.28421658999704
Epoch: 2026-07-25T06:51Z
TLE epoch observation values (Epoch: 2026-07-25T06:51:21.444Z)
Latitude
-0.00002°
Longitude
104.53382°
Altitude
878.134 km
Speed
7.373 km/s
True Right ascension
10h 01m 29s
True Declination
0° 00' 00"
Sunlit
Object was in daylight at epoch
Visualization orbit readout
Latitude
Unknown
Longitude
Unknown
Altitude
Unknown
Speed
Unknown
Apparent Right ascension
Unknown
Apparent Declination
Unknown
Sunlit
N/A
Visualization observer readout
Local Sidereal Time
20:05:37
Azimuth
Unknown
Elevation
Unknown
Doppler factor
Unknown
Orbital elements
Apogee altitude
944.571 km
Perigee altitude
643.777 km
Semi-major axis
7,172.311 km
Eccentricity
0.02097
Inclination
99.0566°
RAAN
150.3733°
Arg. of periapsis
237.7842°
True anomaly
122.33312°
Mean anomaly
120.2857°
Eccentric anomaly
121.31215°
Mean motion
3.57318 °/min
Orbital period
100.75 mins
BSTAR
0.00023603
Loading maneuver chart data...
Computing Atmospheric mass density...

Documentation

Showing up to 5 results
|